Showing default

QIANFAN-19, 61552

Orbit data source: Space-Track

QIANFAN-19, 61552 is a Chinese payload satellite in LEO that was launched on Tue, 15 Oct 2024 UTC via a CHANG ZHENG 6A launch vehicle from the Taiyaun Space Center, China (TSC). Payload-class satellites include a variety of spacecraft equipped with specific instruments for various scientific and technological missions. These include communications satellites like Starlink; space stations such as the ISS; scientific satellites like the Hubble; Earth observation satellites from companies like Planet Labs, Umbra, and HawkEye 360; GPS; miniature CubeSats for education and research; and military/defense satellites.

Loading next visibility...
Identifier
61552, 2024-185A
Orbit
LEO
Last TLE update
6 hours ago
Origin
Manufacturer
GESIH/SECM
Mission
Operational Commercial Communications
Bus & Motor
QIANFAN, Unknown motor
Mass
267 kg wet, ~267 kg dry
Launch date (UTC)
2024-10-15 (9 months ago)
Launch vehicle
CHANG ZHENG 6A
Launch site
Taiyaun Space Center, China (TSC)
Object type
Payload
Rocket body
Debris
Shape & HBR
Box + 1 Pan, 10 m
Radar Cross Section
13.200 m², Large (>1 m²)

Expand to show TLE details & history

TLE from 6 hours ago
0 QIANFAN-19
1 61552U 24185A   25183.98478474  .00000355  00000-0  17893-3 0  9993
2 61552  88.9839  96.6012 0009409 101.4739 258.7505 14.14093848 46663
Epoch: 2025-07-02T23:38Z
TLE epoch observation values (Epoch: 2025-07-02T23:38:05.401Z)
Latitude
-0.00001°
Longitude
-179.17934°
Altitude
849.773 km
Speed
7.427 km/s
True Right ascension
06h 26m 24s
True Declination
0° 00' 00"
Sunlit
Object was in daylight at epoch
Visualization orbit readout
Latitude
-39.38711°
Longitude
1.6215°
Altitude
863.764 km
Speed
7.418 km/s
Apparent Right ascension
22h 09m 42s
Apparent Declination
-80° 07' 21"
Sunlit
Object is in full shadow
Visualization observer readout
Local Sidereal Time
17:31:16
Azimuth
168.552° S
Elevation
-35.895°
Doppler factor
1
Orbital elements
Apogee altitude
849.15 km
Perigee altitude
835.562 km
Semi-major axis
7,220.493 km
Eccentricity
0.00094
Inclination
88.9839°
RAAN
96.6012°
Arg. of periapsis
101.4739°
True anomaly
Unknown
Mean anomaly
258.7505°
Eccentric anomaly
Unknown
Mean motion
3.53747 °/min
Orbital period
101.77 mins
BSTAR
0.00017893
Loading maneuver chart data...
Loading SW <> Apogee altitude chart data...
Loading historical data...
Loading historical data...
Loading historical data...
Loading historical data...
Loading historical data...
Loading historical data...
Loading historical data...

QIANFAN-19 Visibility forecast

Observer location: undefined°, undefined°

Span
Click to sort rows by Start time (UTC) header in descending order
Start Az.
Max El. time (UTC)
Max El. Az.
Max El.
End time (UTC)
End Az.
9 mins2025-07-03 07:00:42.758Z347.057° N2025-07-03 07:04:42.758Z291.76° WNW37.015°2025-07-03 07:09:42.758Z204.771° SW
8 mins2025-07-03 18:26:42.758Z165.958° S2025-07-03 18:30:42.758Z49.488° ENE42.691°2025-07-03 18:34:42.758Z4.917° NNE
5 mins2025-07-04 05:07:42.758Z56.07° ENE2025-07-04 05:09:42.758Z80.985° E15.417°2025-07-04 05:12:42.758Z114.708° SE
|